TRANSIT 10 DEB, 24705

Orbit data source: Space-Track

TRANSIT 10 DEB, 24705 is space debris in LEO originally from a launch on Wed, 22 Dec 1965 UTC launched from the Air Force Western Test Range (AFWTR). Debris objects in space refer to the collection of defunct objects orbiting the Earth. Examples of debris include non-operational satellites, rocket bodies, and fragments generated from explosions, collisions, or faulty payload assembly.

Loading next visibility...
Identifier
24705, 1965-109E
Orbit
LEO
Country
Flag of USUS
Related business
Manufacturer
Unknown
Mission
Spacecraft
Bus & Motor
Unknown
Mass
Unknown
Launch date (UTC)
1965-12-22 (61 years ago)
Launch vehicle
Unknown
Launch site
Air Force Western Test Range (AFWTR)
Object type
Payload
Rocket body
Debris
Shape & HBR
Unknown shape, 0.2 m
Radar Cross Section
Medium (>0.1 m² and <1 m²)

Expand to show TLE details & history
Last TLE update: 8 hours ago

TLE from 8 hours ago
0 TRANSIT 10 DEB
1 24705U 65109E   26247.29678244  .00001550  00000-0  79965-3 0  9992
2 24705  89.0784 190.2997 0074806 172.7774 348.7619 14.13207966512019
Epoch: 2026-09-04T07:07Z
TLE epoch observation values (Epoch: 2026-09-04T07:07:22.002Z)
Latitude
18.62086°
Longitude
-80.27351°
Altitude
797.923 km
Speed
7.483 km/s
True Right ascension
00h 39m 57s
True Declination
18° 31' 04"
Sunlit
Object was in full shadow at epoch
Visualization orbit readout
Latitude
Unknown
Longitude
Unknown
Altitude
Unknown
Speed
Unknown
Apparent Right ascension
Unknown
Apparent Declination
Unknown
Sunlit
N/A
Visualization observer readout
Local Sidereal Time
07:02:05
Azimuth
Unknown
Elevation
Unknown
Doppler factor
Unknown
Orbital elements
Apogee altitude
899.411 km
Perigee altitude
791.339 km
Semi-major axis
7,223.512 km
Eccentricity
0.00748
Inclination
89.0784°
RAAN
190.2997°
Arg. of periapsis
172.7774°
True anomaly
348.5933°
Mean anomaly
348.7619°
Eccentric anomaly
348.67775°
Mean motion
3.53525 °/min
Orbital period
101.83 mins
BSTAR
0.00079965
Loading maneuver chart data...
Computing Atmospheric mass density...
Loading historical data...
Loading historical data...
Loading historical data...
Loading historical data...
Loading historical data...
Loading historical data...
Loading historical data...

Documentation

Showing up to 5 results
|